VLG63EH LMML-LEBL

Flight info

Callsign VLG63EH
Flight time 1h 53m
Altitude 36000
Route GZO M622 SOPIR DCT ADEXI DCT ADAMI DCT ALG DCT GINOX DCT KIFMI/N0406F280 DCT ELVOP DCT MUREN DCT CHELY DCT VERSO
Aircraft A320/M-SDE3FGHIRWY/LB1

Departure

Time 2026-05-06 08:01
Airport Malta International Airport (LMML)

Arrival

Time 2026-05-06 09:55
Airport Josep Tarradellas Barcelona-El Prat Airport (LEBL)
Time Latitude Longitude Altitude Speed Heading
2026-05-06 07:33 35.84995 14.49270 259 ft 0 kts 359°
2026-05-06 07:51 35.84983 14.49270 258 ft 3 kts 356°
2026-05-06 07:51 35.84962 14.49272 258 ft 3 kts 351°
2026-05-06 07:52 35.84942 14.49277 258 ft 3 kts 343°
2026-05-06 07:52 35.84924 14.49285 258 ft 3 kts 331°
2026-05-06 07:52 35.84908 14.49298 259 ft 1 kts 315°
2026-05-06 07:52 35.84908 14.49299 259 ft 0 kts 315°
2026-05-06 07:56 35.84922 14.49276 258 ft 8 kts 301°
2026-05-06 07:56 35.84914 14.49171 258 ft 18 kts 235°
2026-05-06 07:57 35.84933 14.49052 258 ft 14 kts 304°
2026-05-06 07:57 35.84978 14.48954 259 ft 12 kts 291°
2026-05-06 07:57 35.84999 14.48860 258 ft 10 kts 284°
2026-05-06 07:57 35.85013 14.48791 261 ft 6 kts 284°
2026-05-06 07:58 35.85023 14.48750 262 ft 8 kts 287°
2026-05-06 07:58 35.85045 14.48659 265 ft 13 kts 287°
2026-05-06 07:58 35.85099 14.48556 270 ft 16 kts 319°
2026-05-06 07:58 35.85194 14.48454 272 ft 21 kts 319°
2026-05-06 07:59 35.85318 14.48311 272 ft 28 kts 314°
2026-05-06 07:59 35.85463 14.48125 272 ft 31 kts 314°
2026-05-06 07:59 35.85634 14.48029 272 ft 18 kts 343°
2026-05-06 07:59 35.85657 14.47931 272 ft 12 kts 237°
2026-05-06 08:00 35.85605 14.47925 272 ft 0 kts 131°
2026-05-06 08:00 35.85599 14.47934 274 ft 5 kts 131°
2026-05-06 08:01 35.85442 14.48130 272 ft 66 kts 134°
2026-05-06 08:01 35.84966 14.48720 261 ft 126 kts 135°
2026-05-06 08:01 35.84262 14.49624 449 ft 154 kts 132°
2026-05-06 08:01 35.83516 14.50557 1104 ft 154 kts 137°
2026-05-06 08:02 35.82685 14.51401 1665 ft 161 kts 153°
2026-05-06 08:02 35.81556 14.51852 1991 ft 183 kts 173°
2026-05-06 08:02 35.80220 14.51657 2384 ft 205 kts 197°
2026-05-06 08:02 35.78965 14.50629 2752 ft 230 kts 226°
2026-05-06 08:03 35.78075 14.48935 3396 ft 243 kts 236°
2026-05-06 08:03 35.77166 14.47070 3918 ft 259 kts 236°
2026-05-06 08:03 35.76226 14.45139 4682 ft 266 kts 237°
2026-05-06 08:03 35.75270 14.43170 5471 ft 270 kts 236°
2026-05-06 08:04 35.74352 14.41147 6286 ft 274 kts 246°
2026-05-06 08:04 35.73978 14.38827 7069 ft 282 kts 268°
2026-05-06 08:04 35.74363 14.36449 7872 ft 287 kts 292°
2026-05-06 08:04 35.75481 14.34401 8671 ft 293 kts 315°
2026-05-06 08:05 35.77190 14.33028 9466 ft 299 kts 335°
2026-05-06 08:05 35.79134 14.32103 10279 ft 300 kts 337°
2026-05-06 08:05 35.81143 14.31133 10538 ft 321 kts 332°
2026-05-06 08:05 35.83007 14.29507 10790 ft 336 kts 317°
2026-05-06 08:06 35.84959 14.27846 11371 ft 345 kts 330°
2026-05-06 08:06 35.87206 14.26745 12082 ft 350 kts 340°
2026-05-06 08:06 35.89558 14.25935 12805 ft 352 kts 343°
2026-05-06 08:06 35.91914 14.25211 13507 ft 355 kts 342°
2026-05-06 08:07 35.94309 14.24430 14171 ft 357 kts 341°
2026-05-06 08:07 35.96698 14.23560 14772 ft 359 kts 339°
2026-05-06 08:07 35.99080 14.22603 15356 ft 362 kts 338°
2026-05-06 08:07 36.01465 14.21584 15953 ft 364 kts 338°
2026-05-06 08:08 36.03800 14.20354 16526 ft 365 kts 328°
2026-05-06 08:08 36.05912 14.18622 17110 ft 366 kts 321°
2026-05-06 08:08 36.07979 14.16752 17681 ft 369 kts 322°
2026-05-06 08:08 36.10071 14.14887 18240 ft 373 kts 322°
2026-05-06 08:09 36.12195 14.13011 18727 ft 376 kts 322°
2026-05-06 08:09 36.14339 14.11126 19227 ft 379 kts 322°
2026-05-06 08:09 36.16492 14.09234 19731 ft 382 kts 322°
2026-05-06 08:09 36.18662 14.07325 20243 ft 384 kts 322°
2026-05-06 08:10 36.20848 14.05392 20753 ft 387 kts 322°
2026-05-06 08:10 36.23038 14.03448 21258 ft 389 kts 321°
2026-05-06 08:10 36.25248 14.01479 21757 ft 392 kts 321°
2026-05-06 08:10 36.27461 13.99504 22246 ft 394 kts 321°
2026-05-06 08:11 36.29699 13.97507 22730 ft 397 kts 321°
2026-05-06 08:11 36.31949 13.95505 23200 ft 400 kts 321°
2026-05-06 08:11 36.34219 13.93485 23650 ft 402 kts 321°
2026-05-06 08:11 36.36495 13.91456 24024 ft 405 kts 321°
2026-05-06 08:12 36.38782 13.89412 24400 ft 407 kts 321°
2026-05-06 08:12 36.41088 13.87353 24767 ft 409 kts 321°
2026-05-06 08:12 36.43406 13.85281 25133 ft 411 kts 321°
2026-05-06 08:12 36.45736 13.83192 25436 ft 414 kts 321°
2026-05-06 08:13 36.48077 13.81087 25768 ft 417 kts 321°
2026-05-06 08:13 36.50436 13.78967 26088 ft 419 kts 321°
2026-05-06 08:13 36.52807 13.76841 26428 ft 421 kts 321°
2026-05-06 08:13 36.55188 13.74708 26760 ft 423 kts 321°
2026-05-06 08:14 36.57585 13.72561 27083 ft 425 kts 321°
2026-05-06 08:14 36.59990 13.70406 27395 ft 427 kts 321°
2026-05-06 08:14 36.62408 13.68235 27711 ft 429 kts 321°
2026-05-06 08:14 36.64829 13.66058 28021 ft 431 kts 321°
2026-05-06 08:15 36.67264 13.63864 28326 ft 433 kts 321°
2026-05-06 08:15 36.69704 13.61662 28626 ft 435 kts 321°
2026-05-06 08:15 36.72162 13.59441 28885 ft 437 kts 321°
2026-05-06 08:15 36.74630 13.57213 29162 ft 439 kts 321°
2026-05-06 08:16 36.77115 13.54973 29433 ft 441 kts 321°
2026-05-06 08:16 36.79607 13.52722 29695 ft 443 kts 321°
2026-05-06 08:16 36.82103 13.50460 29949 ft 445 kts 321°
2026-05-06 08:16 36.84612 13.48182 30200 ft 446 kts 321°
2026-05-06 08:17 36.87093 13.45930 30441 ft 446 kts 321°
2026-05-06 08:17 36.89636 13.43618 30674 ft 447 kts 321°
2026-05-06 08:17 36.92151 13.41329 30901 ft 447 kts 321°
2026-05-06 08:17 36.94634 13.39068 31207 ft 445 kts 321°
2026-05-06 08:18 36.97131 13.36796 31515 ft 444 kts 321°
2026-05-06 08:18 36.99629 13.34529 31808 ft 443 kts 321°
2026-05-06 08:18 37.02121 13.32271 32120 ft 441 kts 321°
2026-05-06 08:18 37.04604 13.30014 32429 ft 440 kts 321°
2026-05-06 08:19 37.07072 13.27763 32748 ft 438 kts 321°
2026-05-06 08:19 37.09530 13.25518 33051 ft 436 kts 321°
2026-05-06 08:19 37.11976 13.23281 33361 ft 435 kts 321°
2026-05-06 08:19 37.14415 13.21045 33663 ft 433 kts 321°
2026-05-06 08:20 37.16841 13.18818 33951 ft 432 kts 321°
2026-05-06 08:20 37.19263 13.16595 34040 ft 428 kts 321°
2026-05-06 08:20 37.24043 13.12215 34038 ft 424 kts 321°
2026-05-06 08:21 37.28786 13.07851 34049 ft 422 kts 321°
2026-05-06 08:21 37.33499 13.03475 34039 ft 420 kts 317°
2026-05-06 08:22 37.37488 12.98175 34040 ft 417 kts 308°
2026-05-06 08:22 37.41233 12.92611 34039 ft 417 kts 308°
2026-05-06 08:23 37.44986 12.87050 34045 ft 417 kts 308°
2026-05-06 08:23 37.48734 12.81474 34038 ft 417 kts 308°
2026-05-06 08:24 37.52480 12.75901 34046 ft 417 kts 308°
2026-05-06 08:24 37.56216 12.70329 34051 ft 416 kts 308°
2026-05-06 08:25 37.59943 12.64758 34050 ft 415 kts 307°
2026-05-06 08:25 37.63662 12.59178 34041 ft 415 kts 307°
2026-05-06 08:26 37.67369 12.53602 34035 ft 415 kts 307°
2026-05-06 08:26 37.71077 12.48026 34030 ft 414 kts 307°
2026-05-06 08:27 37.74785 12.42444 34015 ft 414 kts 307°
2026-05-06 08:27 37.77885 12.37774 34029 ft 413 kts 307°
2026-05-06 08:28 37.81569 12.32212 34033 ft 412 kts 307°
2026-05-06 08:28 37.85223 12.26684 34028 ft 411 kts 307°
2026-05-06 08:29 37.88889 12.21134 34023 ft 411 kts 307°
2026-05-06 08:29 37.92543 12.15579 34030 ft 410 kts 307°
2026-05-06 08:30 37.96193 12.10019 34031 ft 410 kts 307°
2026-05-06 08:30 37.99837 12.04460 34024 ft 410 kts 307°
2026-05-06 08:31 38.03486 11.98898 34026 ft 410 kts 306°
2026-05-06 08:31 38.07134 11.93332 34028 ft 411 kts 306°
2026-05-06 08:32 38.10780 11.87745 34014 ft 411 kts 306°
2026-05-06 08:32 38.14424 11.82145 34009 ft 411 kts 306°
2026-05-06 08:33 38.18075 11.76533 34010 ft 412 kts 306°
2026-05-06 08:33 38.21728 11.70908 34009 ft 412 kts 306°
2026-05-06 08:34 38.27187 11.62467 34008 ft 412 kts 305°
2026-05-06 08:35 38.30832 11.56838 33997 ft 412 kts 305°
2026-05-06 08:35 38.34468 11.51205 34007 ft 412 kts 305°
2026-05-06 08:36 38.38116 11.45542 34002 ft 413 kts 305°
2026-05-06 08:36 38.41761 11.39879 34000 ft 413 kts 305°
2026-05-06 08:37 38.45386 11.34234 33998 ft 414 kts 305°
2026-05-06 08:37 38.49027 11.28545 34005 ft 414 kts 304°
2026-05-06 08:38 38.52670 11.22860 34012 ft 413 kts 304°
2026-05-06 08:38 38.56312 11.17178 34003 ft 413 kts 304°
2026-05-06 08:39 38.59946 11.11485 34028 ft 413 kts 304°
2026-05-06 08:39 38.63575 11.05778 34012 ft 413 kts 304°
2026-05-06 08:40 38.67200 11.00063 33997 ft 413 kts 304°
2026-05-06 08:40 38.70832 10.94354 33994 ft 414 kts 305°
2026-05-06 08:41 38.74724 10.88876 33994 ft 417 kts 309°
2026-05-06 08:41 38.78797 10.83569 33988 ft 417 kts 309°
2026-05-06 08:42 38.82840 10.78234 33990 ft 417 kts 308°
2026-05-06 08:42 38.86827 10.72837 33999 ft 417 kts 308°
2026-05-06 08:43 38.90780 10.67439 33996 ft 417 kts 308°
2026-05-06 08:43 38.94769 10.62008 33994 ft 418 kts 308°
2026-05-06 08:44 38.98763 10.56573 34010 ft 418 kts 307°
2026-05-06 08:44 39.02752 10.51132 34011 ft 418 kts 307°
2026-05-06 08:45 39.06736 10.45690 34006 ft 418 kts 307°
2026-05-06 08:45 39.10711 10.40249 34002 ft 417 kts 307°
2026-05-06 08:46 39.14693 10.34789 34009 ft 418 kts 307°
2026-05-06 08:46 39.18669 10.29318 33992 ft 419 kts 307°
2026-05-06 08:47 39.22658 10.23832 33987 ft 420 kts 307°
2026-05-06 08:47 39.26655 10.18333 33999 ft 420 kts 307°
2026-05-06 08:48 39.30641 10.12826 34002 ft 420 kts 307°
2026-05-06 08:48 39.34628 10.07296 34004 ft 420 kts 307°
2026-05-06 08:49 39.38613 10.01773 34027 ft 420 kts 306°
2026-05-06 08:49 39.42599 9.96245 34017 ft 420 kts 306°
2026-05-06 08:50 39.46578 9.90701 34014 ft 421 kts 306°
2026-05-06 08:50 39.50581 9.85122 34023 ft 423 kts 306°
2026-05-06 08:51 39.54586 9.79532 33987 ft 420 kts 305°
2026-05-06 08:51 39.58547 9.73994 33956 ft 417 kts 305°
2026-05-06 08:52 39.62459 9.68513 33950 ft 415 kts 305°
2026-05-06 08:52 39.66365 9.63022 33960 ft 413 kts 305°
2026-05-06 08:53 39.70273 9.57519 33968 ft 416 kts 305°
2026-05-06 08:53 39.74206 9.51980 33976 ft 417 kts 305°
2026-05-06 08:54 39.78146 9.46425 33980 ft 418 kts 305°
2026-05-06 08:54 39.81296 9.40330 33997 ft 398 kts 283°
2026-05-06 08:55 39.83126 9.33545 34000 ft 397 kts 283°
2026-05-06 08:55 39.84933 9.26739 33999 ft 398 kts 283°
2026-05-06 08:56 39.86730 9.19942 34004 ft 398 kts 283°
2026-05-06 08:56 39.88526 9.13115 34002 ft 398 kts 283°
2026-05-06 08:57 39.90321 9.06288 34018 ft 400 kts 282°
2026-05-06 08:57 39.92130 8.99415 33994 ft 402 kts 282°
2026-05-06 08:58 39.93942 8.92499 33985 ft 404 kts 282°
2026-05-06 08:58 39.95754 8.85551 33990 ft 405 kts 282°
2026-05-06 08:59 39.97573 8.78585 33990 ft 406 kts 282°
2026-05-06 08:59 39.99392 8.71616 34022 ft 406 kts 282°
2026-05-06 09:00 40.01203 8.64638 34026 ft 405 kts 281°
2026-05-06 09:00 40.02995 8.57673 34022 ft 404 kts 280°
2026-05-06 09:01 40.04774 8.50721 34024 ft 404 kts 281°
2026-05-06 09:01 40.06563 8.43763 34017 ft 403 kts 281°
2026-05-06 09:02 40.08351 8.36812 34015 ft 403 kts 281°
2026-05-06 09:02 40.10115 8.29914 34022 ft 403 kts 280°
2026-05-06 09:03 40.11880 8.22968 34013 ft 402 kts 280°
2026-05-06 09:03 40.13639 8.16040 34007 ft 402 kts 280°
2026-05-06 09:04 40.15398 8.09102 33999 ft 402 kts 280°
2026-05-06 09:04 40.17150 8.02165 33998 ft 401 kts 279°
2026-05-06 09:05 40.18890 7.95232 34016 ft 402 kts 280°
2026-05-06 09:05 40.20338 7.89454 34002 ft 402 kts 279°
2026-05-06 09:06 40.22077 7.82491 34010 ft 403 kts 280°
2026-05-06 09:06 40.23820 7.75526 34010 ft 403 kts 280°
2026-05-06 09:07 40.25564 7.68563 34001 ft 403 kts 280°
2026-05-06 09:07 40.27302 7.61576 33986 ft 402 kts 280°
2026-05-06 09:08 40.29028 7.54601 34003 ft 402 kts 281°
2026-05-06 09:08 40.30743 7.47630 33993 ft 402 kts 281°
2026-05-06 09:09 40.32459 7.40650 33989 ft 402 kts 281°
2026-05-06 09:09 40.34172 7.33657 33985 ft 402 kts 281°
2026-05-06 09:10 40.35880 7.26669 33981 ft 402 kts 281°
2026-05-06 09:10 40.37583 7.19692 33977 ft 402 kts 281°
2026-05-06 09:11 40.39287 7.12698 33978 ft 402 kts 281°
2026-05-06 09:11 40.40981 7.05710 33976 ft 402 kts 281°
2026-05-06 09:12 40.42674 6.98709 33975 ft 402 kts 281°
2026-05-06 09:12 40.44364 6.91705 33973 ft 402 kts 280°
2026-05-06 09:13 40.46041 6.84712 33970 ft 402 kts 280°
2026-05-06 09:13 40.47715 6.77698 33961 ft 403 kts 282°
2026-05-06 09:14 40.49398 6.70651 33958 ft 405 kts 282°
2026-05-06 09:14 40.51085 6.63565 33957 ft 407 kts 282°
2026-05-06 09:15 40.52775 6.56448 33965 ft 408 kts 282°
2026-05-06 09:15 40.54464 6.49332 33965 ft 408 kts 282°
2026-05-06 09:16 40.56140 6.42243 33983 ft 408 kts 282°
2026-05-06 09:16 40.57827 6.35072 33979 ft 408 kts 282°
2026-05-06 09:17 40.59496 6.27938 33980 ft 408 kts 282°
2026-05-06 09:17 40.61148 6.20857 33976 ft 407 kts 282°
2026-05-06 09:18 40.62807 6.13731 33976 ft 407 kts 282°
2026-05-06 09:18 40.64485 6.06556 33993 ft 407 kts 281°
2026-05-06 09:19 40.66127 5.99482 34001 ft 405 kts 281°
2026-05-06 09:19 40.67764 5.92392 33998 ft 404 kts 281°
2026-05-06 09:20 40.69399 5.85265 33994 ft 404 kts 281°
2026-05-06 09:20 40.71012 5.78185 33994 ft 403 kts 281°
2026-05-06 09:21 40.72631 5.71104 33987 ft 403 kts 281°
2026-05-06 09:21 40.74230 5.64078 34009 ft 402 kts 281°
2026-05-06 09:22 40.75832 5.57022 33998 ft 401 kts 281°
2026-05-06 09:22 40.77431 5.49987 33995 ft 400 kts 281°
2026-05-06 09:23 40.79019 5.42950 34024 ft 400 kts 280°
2026-05-06 09:23 40.80600 5.35919 34014 ft 399 kts 280°
2026-05-06 09:24 40.82182 5.28897 34025 ft 398 kts 280°
2026-05-06 09:24 40.83754 5.21893 33842 ft 397 kts 280°
2026-05-06 09:24 40.84531 5.18405 33578 ft 394 kts 280°
2026-05-06 09:25 40.85301 5.14941 33303 ft 392 kts 280°
2026-05-06 09:25 40.86066 5.11494 33036 ft 391 kts 279°
2026-05-06 09:25 40.86829 5.08056 32768 ft 389 kts 279°
2026-05-06 09:25 40.87588 5.04620 32503 ft 388 kts 279°
2026-05-06 09:26 40.88341 5.01211 32242 ft 387 kts 279°
2026-05-06 09:26 40.89096 4.97791 31977 ft 386 kts 279°
2026-05-06 09:26 40.89846 4.94387 31741 ft 384 kts 279°
2026-05-06 09:26 40.90589 4.91012 31487 ft 382 kts 279°
2026-05-06 09:27 40.91331 4.87641 31238 ft 381 kts 279°
2026-05-06 09:27 40.92072 4.84277 30938 ft 381 kts 279°
2026-05-06 09:27 40.92810 4.80921 30489 ft 378 kts 279°
2026-05-06 09:27 40.93541 4.77592 30056 ft 376 kts 279°
2026-05-06 09:28 40.94265 4.74283 29549 ft 374 kts 279°
2026-05-06 09:28 40.94985 4.70986 29040 ft 371 kts 279°
2026-05-06 09:28 40.95697 4.67715 28552 ft 368 kts 279°
2026-05-06 09:28 40.96404 4.64460 28065 ft 366 kts 279°
2026-05-06 09:29 40.97102 4.61243 27582 ft 363 kts 279°
2026-05-06 09:29 40.97797 4.58039 27116 ft 360 kts 279°
2026-05-06 09:29 40.98484 4.54866 26685 ft 357 kts 279°
2026-05-06 09:29 40.99162 4.51728 26290 ft 353 kts 279°
2026-05-06 09:30 40.99835 4.48616 26043 ft 350 kts 279°
2026-05-06 09:30 41.00502 4.45522 25797 ft 348 kts 279°
2026-05-06 09:30 41.01162 4.42448 25550 ft 347 kts 279°
2026-05-06 09:30 41.01821 4.39374 25311 ft 345 kts 279°
2026-05-06 09:31 41.02475 4.36321 25065 ft 344 kts 279°
2026-05-06 09:31 41.03120 4.33321 24825 ft 343 kts 280°
2026-05-06 09:31 41.03773 4.30292 24595 ft 342 kts 280°
2026-05-06 09:31 41.04422 4.27256 24359 ft 341 kts 280°
2026-05-06 09:32 41.05063 4.24245 24124 ft 339 kts 280°
2026-05-06 09:32 41.05703 4.21236 23920 ft 338 kts 279°
2026-05-06 09:32 41.06336 4.18260 23707 ft 334 kts 279°
2026-05-06 09:32 41.06965 4.15306 23458 ft 332 kts 279°
2026-05-06 09:33 41.07588 4.12376 23181 ft 330 kts 279°
2026-05-06 09:33 41.08211 4.09444 22914 ft 329 kts 279°
2026-05-06 09:33 41.08828 4.06539 22644 ft 327 kts 279°
2026-05-06 09:33 41.09442 4.03637 22379 ft 326 kts 279°
2026-05-06 09:34 41.10053 4.00746 22109 ft 325 kts 279°
2026-05-06 09:34 41.10660 3.97868 21846 ft 323 kts 279°
2026-05-06 09:34 41.11226 3.94994 21588 ft 321 kts 278°
2026-05-06 09:34 41.11739 3.92121 21327 ft 319 kts 277°
2026-05-06 09:35 41.12232 3.89219 21065 ft 318 kts 277°
2026-05-06 09:35 41.12703 3.86403 20815 ft 317 kts 277°
2026-05-06 09:35 41.13187 3.83521 20557 ft 315 kts 277°
2026-05-06 09:35 41.13658 3.80725 20323 ft 314 kts 277°
2026-05-06 09:36 41.14146 3.77865 20085 ft 313 kts 277°
2026-05-06 09:36 41.14625 3.75079 19833 ft 312 kts 277°
2026-05-06 09:36 41.15107 3.72277 19589 ft 311 kts 277°
2026-05-06 09:36 41.15588 3.69484 19348 ft 310 kts 277°
2026-05-06 09:37 41.16066 3.66707 19108 ft 308 kts 277°
2026-05-06 09:37 41.16541 3.63929 18870 ft 307 kts 277°
2026-05-06 09:37 41.17010 3.61175 18634 ft 306 kts 277°
2026-05-06 09:37 41.17478 3.58423 18400 ft 305 kts 277°
2026-05-06 09:38 41.17944 3.55678 18149 ft 304 kts 277°
2026-05-06 09:38 41.18408 3.52946 17873 ft 303 kts 278°
2026-05-06 09:38 41.18871 3.50219 17610 ft 303 kts 278°
2026-05-06 09:38 41.19331 3.47488 17340 ft 302 kts 278°
2026-05-06 09:39 41.19784 3.44767 17081 ft 302 kts 278°
2026-05-06 09:39 41.20238 3.42045 16817 ft 301 kts 278°
2026-05-06 09:39 41.20692 3.39336 16560 ft 301 kts 278°
2026-05-06 09:39 41.21148 3.36622 16300 ft 300 kts 279°
2026-05-06 09:40 41.21604 3.33919 16040 ft 300 kts 279°
2026-05-06 09:40 41.22058 3.31217 15791 ft 300 kts 279°
2026-05-06 09:40 41.22958 3.25830 15282 ft 299 kts 279°
2026-05-06 09:41 41.23406 3.23131 15028 ft 298 kts 279°
2026-05-06 09:41 41.23852 3.20446 14804 ft 298 kts 279°
2026-05-06 09:41 41.24299 3.17761 14555 ft 298 kts 280°
2026-05-06 09:41 41.24746 3.15076 14308 ft 297 kts 280°
2026-05-06 09:42 41.25190 3.12395 14077 ft 297 kts 280°
2026-05-06 09:42 41.25485 3.10614 13914 ft 297 kts 280°
2026-05-06 09:42 41.25929 3.07937 13656 ft 296 kts 281°
2026-05-06 09:42 41.26371 3.05266 13405 ft 295 kts 281°
2026-05-06 09:43 41.26810 3.02606 13128 ft 294 kts 281°
2026-05-06 09:43 41.27248 2.99953 12862 ft 293 kts 281°
2026-05-06 09:43 41.27683 2.97309 12601 ft 292 kts 281°
2026-05-06 09:43 41.28115 2.94669 12324 ft 291 kts 281°
2026-05-06 09:44 41.28548 2.92011 11689 ft 297 kts 281°
2026-05-06 09:44 41.28982 2.89352 11048 ft 291 kts 281°
2026-05-06 09:44 41.29408 2.86749 10432 ft 285 kts 281°
2026-05-06 09:44 41.29824 2.84195 9829 ft 280 kts 281°
2026-05-06 09:45 41.30235 2.81685 9162 ft 276 kts 281°
2026-05-06 09:45 41.30641 2.79210 8505 ft 271 kts 281°
2026-05-06 09:45 41.31036 2.76778 7856 ft 267 kts 281°
2026-05-06 09:45 41.31422 2.74380 7236 ft 263 kts 280°
2026-05-06 09:46 41.31803 2.72018 6634 ft 260 kts 281°
2026-05-06 09:46 41.32181 2.69684 6000 ft 256 kts 281°
2026-05-06 09:46 41.32553 2.67379 5357 ft 253 kts 281°
2026-05-06 09:46 41.32921 2.65102 4729 ft 250 kts 282°
2026-05-06 09:47 41.33283 2.62857 4265 ft 241 kts 282°
2026-05-06 09:47 41.33621 2.60766 4133 ft 226 kts 282°
2026-05-06 09:47 41.33947 2.58746 4013 ft 226 kts 282°
2026-05-06 09:47 41.34277 2.56696 3881 ft 223 kts 282°
2026-05-06 09:48 41.34597 2.54701 3760 ft 223 kts 282°
2026-05-06 09:48 41.34918 2.52684 3633 ft 222 kts 282°
2026-05-06 09:48 41.35238 2.50668 3511 ft 222 kts 282°
2026-05-06 09:48 41.35557 2.48657 3384 ft 222 kts 282°
2026-05-06 09:49 41.35878 2.46641 3254 ft 222 kts 282°
2026-05-06 09:49 41.36200 2.44630 3129 ft 222 kts 281°
2026-05-06 09:49 41.36520 2.42614 2994 ft 222 kts 281°
2026-05-06 09:49 41.36838 2.40605 2877 ft 221 kts 282°
2026-05-06 09:50 41.37156 2.38601 2751 ft 221 kts 281°
2026-05-06 09:50 41.37472 2.36602 2620 ft 220 kts 281°
2026-05-06 09:50 41.37788 2.34605 2503 ft 221 kts 281°
2026-05-06 09:50 41.37936 2.32594 2392 ft 219 kts 262°
2026-05-06 09:51 41.37483 2.30664 2327 ft 219 kts 245°
2026-05-06 09:51 41.36851 2.28811 2331 ft 220 kts 246°
2026-05-06 09:51 41.36240 2.27014 2326 ft 205 kts 246°
2026-05-06 09:51 41.35675 2.25349 2324 ft 191 kts 245°
2026-05-06 09:52 41.35139 2.23775 2235 ft 183 kts 246°
2026-05-06 09:52 41.34621 2.22250 1982 ft 180 kts 246°
2026-05-06 09:52 41.34102 2.20725 1746 ft 181 kts 246°
2026-05-06 09:52 41.33586 2.19211 1496 ft 178 kts 245°
2026-05-06 09:53 41.33077 2.17717 1265 ft 173 kts 245°
2026-05-06 09:53 41.32606 2.16337 1033 ft 155 kts 245°
2026-05-06 09:53 41.32177 2.15079 827 ft 145 kts 245°
2026-05-06 09:53 41.31766 2.13873 637 ft 142 kts 245°
2026-05-06 09:54 41.31360 2.12680 423 ft 141 kts 245°
2026-05-06 09:54 41.30959 2.11501 265 ft 140 kts 245°
2026-05-06 09:54 41.30559 2.10325 81 ft 139 kts 244°
2026-05-06 09:54 41.30172 2.09212 17 ft 119 kts 244°
2026-05-06 09:55 41.29891 2.08411 26 ft 71 kts 246°
2026-05-06 09:55 41.29770 2.08054 18 ft 35 kts 245°
2026-05-06 09:55 41.29642 2.07879 16 ft 19 kts 217°
2026-05-06 09:55 41.29545 2.07859 17 ft 15 kts 119°
2026-05-06 09:56 41.29497 2.07953 16 ft 10 kts 160°
2026-05-06 09:56 41.29436 2.07987 17 ft 9 kts 155°
2026-05-06 09:56 41.29379 2.08023 17 ft 9 kts 155°
2026-05-06 09:56 41.29326 2.08056 20 ft 8 kts 154°
2026-05-06 09:57 41.29283 2.08073 19 ft 6 kts 170°
2026-05-06 09:57 41.29247 2.08091 19 ft 4 kts 156°
2026-05-06 09:57 41.29224 2.08105 19 ft 3 kts 156°
2026-05-06 09:57 41.29214 2.08111 20 ft 0 kts 156°
2026-05-06 09:58 41.29211 2.08113 20 ft 0 kts 156°